This demonstration page uses our WeatherBlox Daily Observations layout. Learn more.

Left ArrowRight Arrow

Hourly Observations for May 25, 2021

Temp ( °F °C ) Dew Point ( °F °C ) Humidity (%) Winds ( mph kmh ) Pressure ( in mb ) Visibility ( mi km ) Precip ( " mm )
12:15 am 00:15 Clear 66 18.8 64 17.7 93 93 S 6 9 29.86 1011 10 16 N/A
12:35 am 00:35 Clear 66 18.8 64 17.8 94 94 S 7 11 29.86 1011 10 16 N/A
12:55 am 00:55 Clear 66 18.7 64 17.7 94 94 S 7 11 29.85 1011 10 16 N/A
1:15 am 01:15 Clear 65 18.5 64 17.5 94 94 S 6 9 29.85 1011 10 16 N/A
1:35 am 01:35 Clear 65 18.5 64 17.5 94 94 S 5 7 29.85 1011 10 16 N/A
1:55 am 01:55 Clear 65 18.2 64 17.5 96 96 S 3 6 29.84 1011 10 16 N/A
2:15 am 02:15 Clear 64 17.8 63 17.1 96 96 S 5 7 29.87 1011 10 16 N/A
2:35 am 02:35 Clear 64 18 63 17.2 95 95 SSW 3 6 29.86 1011 10 16 N/A
2:55 am 02:55 Clear 64 18 63 17.2 95 95 N N/A 29.86 1011 10 16 N/A
3:15 am 03:15 Partly Cloudy 64 17.8 63 17.2 96 96 S 3 6 29.87 1011 7 11 N/A
3:35 am 03:35 Clear 64 17.8 63 17.2 96 96 S 5 7 29.87 1011 7 11 N/A
3:55 am 03:55 Clear 63 17.3 62 16.7 96 96 S 3 6 29.86 1011 7 11 N/A
4:15 am 04:15 Clear with Mist and Fog 63 17.2 62 16.6 96 96 S 3 6 29.86 1011 5 8 N/A
4:35 am 04:35 Clear with Mist and Fog 63 17.2 62 16.7 97 97 SSW 3 6 29.85 1011 5 8 N/A
4:55 am 04:55 Partly Cloudy with Mist and Fog 63 17 62 16.5 97 97 SSW 3 6 29.86 1011 3 5 N/A
5:15 am 05:15 Cloudy with Mist and Fog 63 17.1 62 16.6 97 97 SSW 5 7 29.87 1012 1 2 N/A
5:35 am 05:35 Partly Cloudy 64 17.5 63 17 97 97 SW 7 11 29.87 1011 7 11 N/A
5:55 am 05:55 Mostly Cloudy 64 17.8 63 17.3 97 97 SSW 10 17 29.88 1012 7 11 N/A
6:15 am 06:15 Cloudy with Rain 65 18.2 64 17.7 97 97 W 10 17 29.88 1012 10 16 N/A
6:35 am 06:35 Cloudy with Light Rain 67 19.2 58 14.4 74 74 WNW 20 31 29.85 1011 10 16 0.02 0.51
6:55 am 06:55 Cloudy 66 19.1 63 17 88 88 WNW 24 39 29.86 1011 10 16 0.05 1.27
7:15 am 07:15 Cloudy with Light Rain 65 18.5 62 16.6 89 89 WNW 20 31 29.91 1013 7 11 0.01 0.25
7:35 am 07:35 Cloudy with Light Rain 64 17.9 54 12 69 69 NNW 9 15 29.93 1014 10 16 0.03 0.76
7:55 am 07:55 Cloudy with Rain 63 17.1 55 12.6 75 75 NNW 3 6 29.95 1014 10 16 0.04 1.02
8:15 am 08:15 Cloudy with Light Rain 62 16.7 56 13.2 80 80 ESE 7 11 29.93 1014 10 16 0.01 0.25
8:35 am 08:35 Mostly Cloudy with Light Rain 63 17.1 56 13.4 79 79 ESE 10 17 29.88 1012 10 16 0.01 0.25
8:55 am 08:55 Partly Cloudy 64 17.6 56 13.6 78 78 SE 7 11 29.90 1012 10 16 0.01 0.25
9:15 am 09:15 Partly Cloudy 65 18.5 56 13.3 72 72 SSW 3 6 29.89 1012 10 16 N/A
9:35 am 09:35 Mostly Cloudy 67 19.2 59 14.9 76 76 WNW 8 13 29.90 1013 10 16 N/A
9:55 am 09:55 Mostly Cloudy 67 19.6 58 14.7 73 73 W 7 11 29.90 1013 10 16 N/A
10:15 am 10:15 Partly Cloudy 69 20.7 60 15.4 72 72 WNW 7 11 29.90 1013 10 16 N/A
10:35 am 10:35 Sunny 71 21.5 59 14.8 66 66 WNW 7 11 29.89 1012 10 16 N/A
10:55 am 10:55 Sunny 73 22.7 59 14.9 62 62 WNW 9 15 29.89 1012 10 16 N/A
11:15 am 11:15 Sunny 73 22.8 61 16.1 66 66 WNW 10 17 29.88 1012 10 16 N/A
11:35 am 11:35 Sunny 74 23.4 60 15.6 62 62 WNW 12 19 29.88 1012 10 16 N/A
11:55 am 11:55 Sunny 75 23.9 57 13.8 53 53 WNW 8 13 29.88 1012 10 16 N/A
12:15 pm 12:15 Sunny 75 23.8 52 11.2 45 45 WNW 10 17 29.89 1012 10 16 N/A
12:35 pm 12:35 Sunny 76 24.3 52 11.3 44 44 WNW 8 13 29.88 1012 10 16 N/A
12:55 pm 12:55 Partly Cloudy 77 24.8 55 12.6 47 47 W 9 15 29.87 1011 10 16 N/A
1:15 pm 13:15 Partly Cloudy 75 23.9 52 11.1 45 45 WNW 9 15 29.89 1012 10 16 N/A
1:35 pm 13:35 Sunny 76 24.2 49 9.5 39 39 WNW 8 13 29.87 1012 10 16 N/A
1:55 pm 13:55 Partly Cloudy 77 25.2 51 10.3 39 39 NNW 5 7 29.87 1011 10 16 N/A
2:15 pm 14:15 Sunny 77 25.2 47 8.4 34 34 N N/A 29.86 1011 10 16 N/A
2:35 pm 14:35 Sunny 78 25.8 49 9.3 35 35 WNW 9 15 29.85 1011 10 16 N/A
2:55 pm 14:55 Sunny 79 26 46 8 32 32 W 6 9 29.84 1010 10 16 N/A
3:15 pm 15:15 Sunny 79 26.3 49 9.2 34 34 WNW 8 13 29.84 1010 10 16 N/A
3:35 pm 15:35 Sunny 80 26.5 47 8.5 32 32 WNW 12 19 29.83 1010 10 16 N/A
3:55 pm 15:55 Partly Cloudy 80 26.5 47 8.1 31 31 WNW 8 13 29.83 1010 10 16 N/A
4:15 pm 16:15 Partly Cloudy 80 26.7 47 8.2 31 31 NW 7 11 29.83 1010 10 16 N/A
4:35 pm 16:35 Partly Cloudy 80 26.5 46 7.7 30 30 W 8 13 29.83 1010 10 16 N/A
4:55 pm 16:55 Partly Cloudy 80 26.6 46 7.7 30 30 W 6 9 29.83 1010 10 16 N/A
5:15 pm 17:15 Sunny 81 27 46 7.5 29 29 WNW 10 17 29.83 1010 10 16 N/A
5:35 pm 17:35 Sunny 81 27 46 7.8 30 30 W 8 13 29.82 1010 10 16 N/A
5:55 pm 17:55 Sunny 80 26.8 44 6.4 27 27 W 10 17 29.82 1010 10 16 N/A
6:15 pm 18:15 Sunny 80 26.5 43 6.2 27 27 W 9 15 29.82 1010 10 16 N/A
6:35 pm 18:35 Sunny 80 26.5 46 7.5 30 30 W 9 15 29.82 1010 10 16 N/A
6:55 pm 18:55 Sunny 79 26.2 46 7.7 31 31 WNW 8 13 29.83 1010 10 16 N/A
7:15 pm 19:15 Sunny 78 25.8 45 7.4 31 31 WNW 7 11 29.83 1010 10 16 N/A
7:35 pm 19:35 Sunny 78 25.5 48 8.7 35 35 WNW 5 7 29.84 1011 10 16 N/A
7:55 pm 19:55 Sunny 77 25 48 8.8 36 36 N N/A 29.85 1011 10 16 N/A
8:15 pm 20:15 Sunny 76 24.3 49 9.3 39 39 WNW 5 7 29.86 1011 10 16 N/A
8:35 pm 20:35 Sunny 75 23.8 49 9.2 40 40 N N/A 29.87 1011 10 16 N/A
8:55 pm 20:55 Sunny 72 22.2 52 11.1 50 50 N N/A 29.89 1012 10 16 N/A
9:15 pm 21:15 Clear 71 21.7 52 11.1 51 51 N N/A 29.90 1013 10 16 N/A
9:35 pm 21:35 Clear 69 20.8 52 11.3 55 55 N N/A 29.91 1013 10 16 N/A
9:55 pm 21:55 Clear 67 19.4 54 12.2 63 63 N N/A 29.93 1014 10 16 N/A
10:15 pm 22:15 Clear 67 19.2 53 11.7 62 62 N N/A 29.94 1014 10 16 N/A
10:35 pm 22:35 Clear 67 19.2 54 12.1 64 64 N N/A 29.94 1014 10 16 N/A
10:55 pm 22:55 Clear 64 17.5 56 13.2 76 76 N N/A 29.98 1015 10 16 N/A
11:15 pm 23:15 Clear 64 17.5 56 13.5 78 78 N N/A 29.98 1015 10 16 N/A
11:35 pm 23:35 Clear 63 17.4 56 13.1 76 76 N N/A 29.98 1015 10 16 N/A
11:55 pm 23:55 Clear 62 16.7 53 11.7 73 73 SW 6 9 29.98 1015 10 16 N/A

Powered by AerisWeather